STARLINK-11247, 60720

Orbit data source: Space-Track

STARLINK-11247, 60720 is a payload satellite owned by SpaceX/Seattle (US) in LEO that was launched on Wed, 28 Aug 2024 UTC via an FALCON 9 launch vehicle from the Air Force Eastern Test Range (AFETR). Payloads include a variety of satellites, spacecraft, and rockets equipped with specific instruments for various scientific and technological missions. These include communications satellites like Starlink; space stations such as the ISS; scientific satellites like the Hubble; Earth observation satellites from companies like Planet Labs, Umbra, and HawkEye 360; GPS; miniature CubeSats for education and research; and military/defense satellites.

Loading next visibility...
STARLINK-11247 details
Identifier
60720, 2024-152A
Orbit
LEO
Last TLE update22 hours ago
Origin
Flag of USSpaceX/Seattle (US)
ManufacturerSpaceX/Seattle
MissionOperational spacecraft
Bus & MotorSTARLINK V2M, Unknown motor
Mass730 kg wet, ~700 kg dry
Launch date (UTC)
2024-08-28 (4 months ago)
Launch vehicle
FALCON 9
Launch site
Air Force Eastern Test Range (AFETR)
Object type
Payload
Rocket body
Debris
Shape & HBRUnknown
Radar Cross SectionLarge (>1 m²)

Expand to show TLE details & history

TLE from 22 hours ago
0 STARLINK-11247
1 60720U 24152A   24355.67810363  .00002251  00000-0  23430-4 0  9998
2 60720  53.1587 145.3958 0000870 143.0072 217.1006 15.69714383 19108
Epoch: 2024-12-20T16:16Z
Definitive object data (Epoch: 2024-12-20T16:16:28.153Z)
Latitude-0.00003°
Longitude171.5383°
Altitude361.097 km
Speed7.694 km/s
True Right ascension09h 41m 34s
True Declination0° 00' 00"
Sunlit
Object was in full shadow at TLE epoch
Visualization TLE readout
Latitude32.94838°
Longitude-41.84958°
Altitude361.319 km
Speed7.697 km/s
Apparent Right ascension22h 06m 48s
Apparent Declination-3° 10' 36"
Sunlit
Object is in daylight
Visualization observer readout
Local Sidereal Time13:17:04
Azimuth62.125° ENE
Elevation-33.522°
Doppler factor1
Orbital elements
Apogee altitude360.561 km
Perigee altitude359.389 km
Semi-major axis6,738.112 km
Eccentricity0.000087
Inclination53.1587°
RAAN145.3958°
Arg. of periapsis143.0072°
True anomaly217.09459°
Mean anomaly217.1006°
Eccentric anomaly217.09759°
Mean motion3.92406 °/min
BSTAR0.00002343
Orbital period91.74 mins
Loading maneuver chart data...
Loading historical data...
Loading historical data...
Loading historical data...
Loading historical data...
Loading historical data...
Loading historical data...
Loading historical data...

STARLINK-11247 Visibility forecast

Observer location: undefined°, undefined

Span
Click to sort rows by Start time (UTC) header in descending order
Start Az.
Max El. time (UTC)
Max El. Az.
Max El.
End time (UTC)
End Az.
4 mins2024-12-21 18:42:59.061Z337.807° N2024-12-21 18:44:59.061Z27.609° NE22.177°2024-12-21 18:46:59.061Z80.758° E
4 mins2024-12-21 20:18:59.061Z273.877° WNW2024-12-21 20:19:59.061Z245.142° WSW24.853°2024-12-21 20:22:59.061Z164.657° S
5 mins2024-12-22 12:46:59.061Z242.818° WSW2024-12-22 12:48:59.061Z281.306° WNW38.125°2024-12-22 12:51:59.061Z42.254° NE
|